Change the Weather History Date:

Sunday, December 1, 2013

  Actual Average Record
Temperature  
Mean Temperature 44 °F -  
Max Temperature 55 °F 40 °F 69 °F (1998)
Min Temperature 32 °F 20 °F 0 °F (2014)
Degree Days  
Heating Degree Days 22    
Moisture  
Dew Point 27 °F    
Average Humidity 57    
Maximum Humidity 74    
Minimum Humidity 33    
Precipitation  
Precipitation 0.00 in - - ()
Sea Level Pressure  
Sea Level Pressure 29.91 in    
Wind  
Wind Speed 5 mph (WSW)    
Max Wind Speed 9 mph    
Max Gust Speed -    
Visibility 10 miles    
Events      
Averages and records for this station are not official NWS values.
T = Trace of Precipitation, MM = Missing Value Source: NWS Daily Summary

Daily Weather History Graph

Daily Weather History Graph

Search for Another Location

Airport or City:

Trip Planner

Search our weather history database for the weather conditions in past years. The results will help you decide how hot, cold, wet, or windy it might be!

Date:

Astronomy

Dec. 01, 2013 Rise Set
Actual Time 7:07 AM MST 4:15 PM MST
Civil Twilight 6:35 AM MST 4:47 PM MST
Nautical Twilight 5:59 AM MST 5:23 PM MST
Astronomical Twilight 5:24 AM MST 5:58 PM MST
Moon 5:25 AM MST (12/1) 3:29 PM MST (12/1)
Length of Visible Light 10h 12m
Length of Day
9h 07m
Waning Crescent, 2% of the Moon is Illuminated
Dec 1
Waning Crescent
Dec 2
New
Dec 9
First Quarter
Dec 17
Full
Dec 25
Last Quarter

Hourly Weather History & Observations

Time (MST) Temp. Windchill Dew Point Humidity Pressure Visibility Wind Dir Wind Speed Gust Speed Precip Events Conditions
12:58 AM 34.5 °F 31.6 °F 24.1 °F 66% 30.10 in 10.0 mi WSW 3.5 mph - N/A   Clear
1:58 AM 32.0 °F 27.5 °F 23.5 °F 71% 30.11 in 10.0 mi SW 4.6 mph - N/A   Partly Cloudy
2:58 AM 32.0 °F 26.4 °F 24.4 °F 74% 30.11 in 10.0 mi WSW 5.8 mph - N/A   Overcast
3:58 AM 35.6 °F 31.7 °F 25.9 °F 68% 30.08 in 10.0 mi West 4.6 mph - N/A   Mostly Cloudy
4:58 AM 37.0 °F 31.0 °F 26.4 °F 65% 30.07 in 10.0 mi WSW 8.1 mph - N/A   Scattered Clouds
5:58 AM 36.5 °F 32.7 °F 26.2 °F 66% 30.07 in 10.0 mi West 4.6 mph - N/A   Scattered Clouds
6:58 AM 35.1 °F 29.3 °F 26.6 °F 71% 30.07 in 10.0 mi West 6.9 mph - N/A   Overcast
7:58 AM 39.6 °F 35.4 °F 27.1 °F 61% 30.07 in 10.0 mi West 5.8 mph - N/A   Overcast
8:58 AM 43.0 °F 41.3 °F 27.5 °F 54% 30.04 in 10.0 mi West 3.5 mph - N/A   Mostly Cloudy
9:58 AM 47.5 °F - 29.5 °F 50% 30.02 in 10.0 mi Calm Calm - N/A   Partly Cloudy
10:58 AM 52.2 °F - 28.0 °F 39% 29.97 in 10.0 mi SW 3.5 mph - N/A   Clear
11:58 AM 54.5 °F - 27.3 °F 35% 29.92 in 10.0 mi Calm Calm - N/A   Mostly Cloudy
12:58 PM 55.8 °F - 27.1 °F 33% 29.89 in 10.0 mi Calm Calm - N/A   Scattered Clouds
1:58 PM 52.5 °F - 29.5 °F 41% 29.85 in 10.0 mi SE 9.2 mph - N/A   Mostly Cloudy
2:58 PM 51.1 °F - 30.7 °F 46% 29.82 in 10.0 mi SE 5.8 mph - N/A   Clear
3:58 PM 46.9 °F - 28.9 °F 50% 29.80 in 10.0 mi SSE 5.8 mph - N/A   Clear
4:58 PM 45.5 °F 41.8 °F 27.5 °F 49% 29.78 in 10.0 mi SW 6.9 mph - N/A   Overcast
5:58 PM 44.8 °F - 26.4 °F 49% 29.76 in 10.0 mi WSW 2.3 mph - N/A   Partly Cloudy
6:58 PM 40.5 °F - 25.9 °F 56% 29.74 in 10.0 mi Calm Calm - N/A   Clear
7:58 PM 42.4 °F 40.7 °F 26.2 °F 53% 29.71 in 10.0 mi WSW 3.5 mph - N/A   Overcast
8:58 PM 35.2 °F 29.5 °F 25.2 °F 67% 29.72 in 10.0 mi WSW 6.9 mph - N/A   Mostly Cloudy
9:58 PM 37.6 °F 33.1 °F 27.1 °F 66% 29.68 in 10.0 mi WNW 5.8 mph - N/A   Overcast
10:58 PM 34.3 °F 27.7 °F 25.2 °F 69% 29.69 in 10.0 mi West 8.1 mph - N/A   Partly Cloudy
11:58 PM 34.7 °F 30.6 °F 26.4 °F 72% 29.67 in 10.0 mi West 4.6 mph - N/A   Mostly Cloudy